| time (UTC) | temp F | wind direction | speed MPH | gust MPH | rain 1hr in | rain 24hr in | rain mn in | humidity % | barometer mb |
| 20260506141509 | 45 | 45 | 0.0 | 0.0 | 0.00 | 0.00 | 0.00 | 67 | 999.6 |
| 20260506141008 | 45 | 23 | 0.0 | 0.0 | 0.00 | 0.00 | 0.00 | 68 | 999.6 |
| 20260506140851 | 45 | 338 | 0.0 | 0.0 | 0.00 | 0.00 | 0.00 | 68 | 999.6 |
| 20260506140509 | 44 | 0 | 0.0 | 0.0 | 0.00 | 0.00 | 0.00 | 67 | 999.6 |
| 20260506135509 | 44 | 23 | 0.0 | 0.0 | 0.00 | 0.00 | 0.00 | 68 | 999.6 |
| 20260506135350 | 44 | 45 | 0.0 | 0.0 | 0.00 | 0.00 | 0.00 | 67 | 999.6 |
| 20260506135009 | 44 | 45 | 0.0 | 0.0 | 0.00 | 0.00 | 0.00 | 69 | 999.6 |
| 20260506134007 | 44 | 315 | 0.0 | 0.0 | 0.00 | 0.00 | 0.00 | 70 | 999.6 |
| 20260506133850 | 44 | 315 | 0.0 | 0.0 | 0.00 | 0.00 | 0.00 | 70 | 999.4 |
| 20260506133508 | 44 | 315 | 0.0 | 0.0 | 0.00 | 0.00 | 0.00 | 70 | 999.5 |
| 20260506132508 | 43 | 315 | 0.0 | 0.0 | 0.00 | 0.00 | 0.00 | 70 | 999.3 |
| 20260506132349 | 43 | 315 | 0.0 | 0.0 | 0.00 | 0.00 | 0.00 | 70 | 999.3 |
| 20260506131008 | 43 | 338 | 0.0 | 0.0 | 0.00 | 0.00 | 0.00 | 70 | 999.3 |
| 20260506130851 | 43 | 338 | 0.0 | 0.0 | 0.00 | 0.00 | 0.00 | 70 | 999.1 |
| 20260506130508 | 42 | 315 | 0.0 | 0.0 | 0.00 | 0.00 | 0.00 | 70 | 999.3 |
| 20260506125509 | 42 | 338 | 0.0 | 0.0 | 0.00 | 0.00 | 0.00 | 69 | 999.1 |
| 20260506125350 | 42 | 0 | 0.0 | 0.0 | 0.00 | 0.00 | 0.00 | 69 | 999.0 |
| 20260506125007 | 42 | 23 | 0.0 | 0.0 | 0.00 | 0.00 | 0.00 | 69 | 998.9 |
| 20260506124508 | 42 | 68 | 0.0 | 0.0 | 0.00 | 0.00 | 0.00 | 69 | 998.9 |
| 20260506123849 | 42 | 23 | 0.0 | 0.0 | 0.00 | 0.00 | 0.00 | 70 | 998.8 |
| 20260506123508 | 42 | 23 | 0.0 | 0.0 | 0.00 | 0.00 | 0.00 | 70 | 998.8 |
| 20260506123009 | 41 | 0 | 0.0 | 0.0 | 0.00 | 0.00 | 0.00 | 70 | 998.6 |
| 20260506122509 | 41 | 0 | 0.0 | 0.0 | 0.00 | 0.00 | 0.00 | 70 | 998.6 |
| 20260506122350 | 41 | 23 | 0.0 | 0.0 | 0.00 | 0.00 | 0.00 | 70 | 998.6 |
| 20260506121008 | 42 | 90 | 0.0 | 0.0 | 0.00 | 0.00 | 0.00 | 69 | 998.3 |
| 20260506120851 | 42 | 90 | 0.0 | 0.0 | 0.00 | 0.00 | 0.00 | 70 | 998.3 |
| 20260506120508 | 42 | 0 | 0.0 | 0.0 | 0.00 | 0.00 | 0.00 | 70 | 998.3 |
| 20260506120007 | 41 | 45 | 0.0 | 0.0 | 0.00 | 0.00 | 0.00 | 70 | 998.3 |
| 20260506115509 | 41 | 45 | 0.0 | 0.0 | 0.00 | 0.00 | 0.00 | 70 | 998.3 |
| 20260506115350 | 41 | 338 | 0.0 | 0.0 | 0.00 | 0.00 | 0.00 | 71 | 998.3 |
| 20260506115009 | 41 | 45 | 0.0 | 0.0 | 0.00 | 0.00 | 0.00 | 71 | 998.3 |
| 20260506114509 | 40 | 0 | 0.0 | 0.0 | 0.00 | 0.00 | 0.00 | 72 | 998.3 |
| 20260506114009 | 40 | 0 | 0.0 | 0.0 | 0.00 | 0.00 | 0.00 | 73 | 998.3 |
| 20260506113850 | 39 | 315 | 0.0 | 0.0 | 0.00 | 0.00 | 0.00 | 73 | 998.3 |
| 20260506113509 | 39 | 338 | 0.0 | 0.0 | 0.00 | 0.00 | 0.00 | 73 | 998.3 |
| 20260506113007 | 39 | 315 | 0.0 | 0.0 | 0.00 | 0.00 | 0.00 | 74 | 998.3 |
| 20260506112508 | 39 | 315 | 0.0 | 0.0 | 0.00 | 0.00 | 0.00 | 74 | 998.4 |
| 20260506112351 | 39 | 315 | 0.0 | 0.0 | 0.00 | 0.00 | 0.00 | 74 | 998.3 |
| 20260506112007 | 39 | 338 | 0.0 | 0.0 | 0.00 | 0.00 | 0.00 | 74 | 998.3 |
| 20260506111509 | 39 | 338 | 0.0 | 0.0 | 0.00 | 0.00 | 0.00 | 74 | 998.3 |
| 20260506111008 | 39 | 338 | 0.0 | 0.0 | 0.00 | 0.00 | 0.00 | 74 | 998.3 |
| 20260506110849 | 40 | 338 | 0.0 | 0.0 | 0.00 | 0.00 | 0.00 | 75 | 998.3 |
| 20260506110508 | 40 | 338 | 0.0 | 0.0 | 0.00 | 0.00 | 0.00 | 75 | 998.3 |
| 20260506110008 | 40 | 338 | 0.0 | 0.0 | 0.00 | 0.00 | 0.00 | 76 | 997.9 |
| 20260506105508 | 41 | 0 | 0.0 | 0.0 | 0.00 | 0.00 | 0.00 | 77 | 997.9 |
| 20260506105351 | 41 | 315 | 0.0 | 0.0 | 0.00 | 0.00 | 0.00 | 77 | 997.8 |
| 20260506105008 | 41 | 45 | 0.0 | 0.0 | 0.00 | 0.00 | 0.00 | 77 | 997.6 |
| 20260506104507 | 41 | 338 | 0.0 | 0.0 | 0.00 | 0.00 | 0.00 | 78 | 997.6 |
| 20260506104007 | 41 | 23 | 0.0 | 0.0 | 0.00 | 0.00 | 0.00 | 79 | 997.6 |
| 20260506103850 | 41 | 293 | 0.0 | 0.0 | 0.00 | 0.00 | 0.00 | 79 | 997.6 |
| 20260506103508 | 41 | 293 | 0.0 | 0.0 | 0.00 | 0.00 | 0.00 | 79 | 997.3 |
| 20260506103008 | 41 | 45 | 0.0 | 0.0 | 0.00 | 0.00 | 0.00 | 79 | 997.2 |
| 20260506102350 | 41 | 68 | 0.0 | 0.0 | 0.00 | 0.00 | 0.00 | 79 | 997.0 |
| 20260506102008 | 41 | 90 | 0.0 | 0.0 | 0.00 | 0.00 | 0.00 | 79 | 996.9 |
| 20260506101508 | 41 | 90 | 0.0 | 0.0 | 0.00 | 0.00 | 0.00 | 79 | 996.6 |
| 20260506101009 | 41 | 68 | 0.0 | 0.0 | 0.00 | 0.00 | 0.00 | 79 | 996.6 |
| 20260506100850 | 41 | 68 | 0.0 | 0.0 | 0.00 | 0.00 | 0.00 | 79 | 996.6 |
| 20260506100008 | 41 | 68 | 0.0 | 0.0 | 0.00 | 0.00 | 0.00 | 79 | 996.6 |
| 20260506095351 | 41 | 113 | 0.0 | 0.0 | 0.00 | 0.00 | 0.00 | 80 | 996.6 |
| 20260506095008 | 41 | 90 | 0.0 | 0.0 | 0.00 | 0.00 | 0.00 | 80 | 996.6 |
| 20260506094509 | 41 | 90 | 0.0 | 0.0 | 0.00 | 0.00 | 0.00 | 80 | 996.6 |
| 20260506094008 | 41 | 90 | 0.0 | 0.0 | 0.00 | 0.00 | 0.00 | 80 | 996.2 |
| 20260506093851 | 41 | 90 | 0.0 | 0.0 | 0.00 | 0.00 | 0.00 | 80 | 996.2 |
| 20260506093009 | 40 | 68 | 0.0 | 0.0 | 0.00 | 0.00 | 0.00 | 79 | 996.2 |
| 20260506092509 | 40 | 68 | 0.0 | 0.0 | 0.00 | 0.00 | 0.00 | 79 | 996.2 |
| 20260506092350 | 40 | 68 | 0.0 | 0.0 | 0.00 | 0.00 | 0.00 | 79 | 996.2 |
| 20260506091507 | 40 | 68 | 0.0 | 0.0 | 0.00 | 0.00 | 0.00 | 79 | 995.9 |
| 20260506091008 | 40 | 68 | 0.0 | 0.0 | 0.00 | 0.00 | 0.00 | 79 | 995.9 |
| 20260506090851 | 40 | 23 | 0.0 | 0.0 | 0.00 | 0.00 | 0.00 | 78 | 996.2 |
| 20260506090507 | 40 | 23 | 0.0 | 0.0 | 0.00 | 0.00 | 0.00 | 78 | 995.9 |
| 20260506090008 | 40 | 23 | 0.0 | 0.0 | 0.00 | 0.00 | 0.00 | 78 | 996.2 |
| 20260506085508 | 40 | 23 | 0.0 | 0.0 | 0.00 | 0.00 | 0.00 | 77 | 996.2 |
| 20260506085350 | 40 | 23 | 0.0 | 0.0 | 0.00 | 0.00 | 0.00 | 77 | 996.2 |
| 20260506084508 | 40 | 23 | 0.0 | 0.0 | 0.00 | 0.00 | 0.00 | 77 | 996.2 |
| 20260506084008 | 40 | 23 | 0.0 | 0.0 | 0.00 | 0.00 | 0.00 | 77 | 996.5 |
| 20260506083850 | 40 | 23 | 0.0 | 0.0 | 0.00 | 0.00 | 0.00 | 77 | 996.5 |
| 20260506083509 | 40 | 23 | 0.0 | 0.0 | 0.00 | 0.00 | 0.00 | 77 | 996.3 |
| 20260506083009 | 40 | 23 | 0.0 | 0.0 | 0.00 | 0.00 | 0.00 | 77 | 996.2 |
| 20260506082508 | 40 | 23 | 0.0 | 0.0 | 0.00 | 0.00 | 0.00 | 77 | 996.2 |
| 20260506082350 | 40 | 23 | 0.0 | 0.0 | 0.00 | 0.00 | 0.00 | 77 | 996.2 |
| 20260506082009 | 40 | 23 | 0.0 | 0.0 | 0.00 | 0.00 | 0.00 | 77 | 996.2 |
| 20260506081008 | 41 | 23 | 0.0 | 0.0 | 0.00 | 0.00 | 0.00 | 77 | 996.2 |
| 20260506080849 | 41 | 23 | 0.0 | 0.0 | 0.00 | 0.00 | 0.00 | 76 | 996.2 |
| 20260506080508 | 41 | 23 | 0.0 | 0.0 | 0.00 | 0.00 | 0.00 | 76 | 996.2 |
| 20260506073507 | 42 | 23 | 0.0 | 0.0 | 0.00 | 0.00 | 0.00 | 75 | 995.7 |
| 20260506073008 | 42 | 23 | 0.0 | 0.0 | 0.00 | 0.00 | 0.00 | 76 | 995.9 |
| 20260506072509 | 42 | 23 | 0.0 | 0.0 | 0.00 | 0.00 | 0.00 | 76 | 995.7 |
| 20260506072351 | 42 | 23 | 0.0 | 0.0 | 0.00 | 0.00 | 0.00 | 76 | 995.9 |
| 20260506071507 | 42 | 23 | 0.0 | 0.0 | 0.00 | 0.00 | 0.00 | 76 | 995.9 |
| 20260506071008 | 42 | 23 | 0.0 | 0.0 | 0.00 | 0.00 | 0.00 | 76 | 995.9 |
| 20260506070851 | 42 | 23 | 0.0 | 0.0 | 0.00 | 0.00 | 0.00 | 76 | 996.0 |
| 20260506070508 | 42 | 23 | 0.0 | 0.0 | 0.00 | 0.00 | 0.00 | 76 | 995.9 |
| 20260506062509 | 43 | 23 | 0.0 | 0.0 | 0.00 | 0.00 | 0.00 | 73 | 995.9 |
| 20260506062350 | 43 | 23 | 0.0 | 0.0 | 0.00 | 0.00 | 0.00 | 73 | 995.9 |
| 20260506062009 | 43 | 23 | 0.0 | 0.0 | 0.00 | 0.00 | 0.00 | 73 | 995.9 |
| 20260506060849 | 43 | 23 | 0.0 | 0.0 | 0.00 | 0.00 | 0.00 | 72 | 996.2 |
| 20260506060508 | 43 | 23 | 0.0 | 0.0 | 0.00 | 0.00 | 0.00 | 72 | 995.9 |
| 20260506051008 | 44 | 45 | 0.0 | 0.0 | 0.00 | 0.00 | 0.00 | 72 | 995.5 |
| 20260506050851 | 44 | 45 | 0.0 | 0.0 | 0.00 | 0.00 | 0.00 | 72 | 995.5 |
| 20260506050508 | 44 | 45 | 0.0 | 0.0 | 0.00 | 0.00 | 0.00 | 72 | 995.5 |
| 20260506045009 | 45 | 45 | 0.0 | 0.0 | 0.00 | 0.00 | 0.00 | 70 | 995.9 |
| 20260506044509 | 45 | 45 | 0.0 | 0.0 | 0.00 | 0.00 | 0.00 | 70 | 995.6 |
| 20260506044009 | 45 | 45 | 0.0 | 0.0 | 0.00 | 0.00 | 0.00 | 70 | 995.8 |
| 20260506043850 | 45 | 45 | 0.0 | 0.0 | 0.00 | 0.00 | 0.00 | 70 | 995.5 |
| 20260506043009 | 45 | 45 | 0.0 | 0.0 | 0.00 | 0.00 | 0.00 | 71 | 995.5 |
| 20260506042508 | 45 | 45 | 0.0 | 0.0 | 0.00 | 0.00 | 0.00 | 70 | 995.3 |
| 20260506042351 | 46 | 45 | 0.0 | 0.0 | 0.00 | 0.00 | 0.00 | 70 | 995.5 |
| 20260506042100 | 46 | 45 | 0.0 | 0.0 | 0.00 | 0.00 | 0.00 | 70 | 995.5 |
| 20260506042008 | 46 | 45 | 0.0 | 0.0 | 0.00 | 0.00 | 0.00 | 70 | 995.5 |
| 20260506041507 | 46 | 23 | 0.0 | 0.0 | 0.00 | 0.00 | 0.00 | 68 | 995.5 |
| 20260506041008 | 46 | 23 | 0.0 | 0.0 | 0.00 | 0.00 | 0.00 | 66 | 995.5 |
| 20260506040850 | 46 | 23 | 0.0 | 0.0 | 0.00 | 0.00 | 0.00 | 66 | 995.8 |
| 20260506040508 | 46 | 23 | 0.0 | 0.0 | 0.00 | 0.00 | 0.00 | 66 | 995.9 |
| 20260506040008 | 47 | 23 | 0.0 | 0.0 | 0.00 | 0.00 | 0.00 | 66 | 995.5 |
| 20260506035350 | 47 | 0 | 0.0 | 0.0 | 0.00 | 0.00 | 0.00 | 62 | 995.5 |
| 20260506035009 | 47 | 0 | 0.0 | 0.0 | 0.00 | 0.00 | 0.00 | 62 | 995.5 |
| 20260506034508 | 47 | 0 | 0.0 | 0.0 | 0.00 | 0.00 | 0.00 | 60 | 995.6 |
| 20260506033851 | 48 | 338 | 0.0 | 0.0 | 0.00 | 0.00 | 0.00 | 55 | 995.5 |
| 20260506033009 | 48 | 338 | 0.0 | 0.0 | 0.00 | 0.00 | 0.00 | 54 | 995.2 |
| 20260506032351 | 48 | 338 | 0.0 | 0.0 | 0.00 | 0.00 | 0.00 | 51 | 995.5 |
| 20260506032008 | 49 | 315 | 0.0 | 0.0 | 0.00 | 0.00 | 0.00 | 51 | 995.5 |
| 20260506031508 | 49 | 315 | 0.0 | 0.0 | 0.00 | 0.00 | 0.00 | 50 | 995.5 |
| 20260506030851 | 49 | 293 | 0.0 | 0.0 | 0.00 | 0.00 | 0.00 | 49 | 995.2 |
| 20260506030009 | 49 | 293 | 0.0 | 0.0 | 0.00 | 0.00 | 0.00 | 49 | 995.2 |
| 20260506025509 | 49 | 293 | 0.0 | 0.0 | 0.00 | 0.00 | 0.00 | 49 | 995.2 |
| 20260506025350 | 49 | 293 | 0.0 | 0.0 | 0.00 | 0.00 | 0.00 | 49 | 995.2 |
| 20260506025008 | 49 | 293 | 0.0 | 0.0 | 0.00 | 0.00 | 0.00 | 48 | 995.2 |
| 20260506024509 | 50 | 293 | 0.0 | 0.0 | 0.00 | 0.00 | 0.00 | 48 | 995.1 |
| 20260506023850 | 50 | 293 | 0.0 | 0.0 | 0.00 | 0.00 | 0.00 | 48 | 994.9 |
| 20260506023508 | 50 | 293 | 0.0 | 0.0 | 0.00 | 0.00 | 0.00 | 48 | 994.9 |
| 20260506022509 | 51 | 293 | 0.0 | 0.0 | 0.00 | 0.00 | 0.00 | 48 | 994.9 |
| 20260506022350 | 51 | 293 | 0.0 | 0.0 | 0.00 | 0.00 | 0.00 | 48 | 994.9 |
| 20260506022009 | 51 | 293 | 0.0 | 0.0 | 0.00 | 0.00 | 0.00 | 47 | 994.9 |
| 20260506021009 | 51 | 315 | 0.0 | 0.0 | 0.00 | 0.00 | 0.00 | 47 | 994.9 |
| 20260506020850 | 51 | 315 | 0.0 | 0.0 | 0.00 | 0.00 | 0.00 | 47 | 994.9 |
| 20260506020508 | 51 | 270 | 0.0 | 0.0 | 0.00 | 0.00 | 0.00 | 47 | 994.9 |
| 20260506015509 | 52 | 270 | 0.0 | 0.0 | 0.00 | 0.00 | 0.00 | 46 | 994.9 |
| 20260506015351 | 52 | 270 | 0.0 | 0.0 | 0.00 | 0.00 | 0.00 | 46 | 994.9 |
| 20260506015008 | 52 | 315 | 0.0 | 0.0 | 0.00 | 0.00 | 0.00 | 46 | 994.6 |
| 20260506014509 | 52 | 270 | 0.0 | 0.0 | 0.00 | 0.00 | 0.00 | 46 | 994.5 |
| 20260506014009 | 52 | 0 | 0.0 | 0.0 | 0.00 | 0.00 | 0.00 | 46 | 994.4 |
| 20260506013850 | 52 | 293 | 0.0 | 0.0 | 0.00 | 0.00 | 0.00 | 46 | 994.4 |
| 20260506013009 | 53 | 338 | 0.0 | 0.0 | 0.00 | 0.00 | 0.00 | 45 | 994.5 |
| 20260506012509 | 53 | 293 | 0.0 | 0.0 | 0.00 | 0.00 | 0.00 | 45 | 994.2 |
| 20260506012350 | 53 | 315 | 0.0 | 0.0 | 0.00 | 0.00 | 0.00 | 45 | 994.2 |
| 20260506012008 | 53 | 293 | 0.0 | 0.0 | 0.00 | 0.00 | 0.00 | 45 | 994.2 |
| 20260506011008 | 53 | 270 | 0.0 | 0.0 | 0.00 | 0.00 | 0.00 | 44 | 994.1 |
| 20260506010851 | 53 | 270 | 0.0 | 0.0 | 0.00 | 0.00 | 0.00 | 44 | 994.2 |
| 20260506010507 | 53 | 293 | 0.0 | 0.0 | 0.00 | 0.00 | 0.00 | 44 | 993.9 |
| 20260506005509 | 54 | 293 | 0.0 | 0.0 | 0.00 | 0.00 | 0.00 | 43 | 993.9 |
| 20260506005350 | 54 | 293 | 0.0 | 0.0 | 0.00 | 0.00 | 0.00 | 43 | 993.9 |
| 20260506005009 | 54 | 270 | 0.0 | 0.0 | 0.00 | 0.00 | 0.00 | 43 | 993.9 |
| 20260506004009 | 54 | 270 | 0.0 | 0.0 | 0.00 | 0.00 | 0.00 | 43 | 993.9 |
| 20260506003850 | 54 | 270 | 0.0 | 0.0 | 0.00 | 0.00 | 0.00 | 43 | 993.9 |
| 20260506003508 | 55 | 270 | 0.0 | 0.0 | 0.00 | 0.00 | 0.00 | 42 | 993.9 |
| 20260506002509 | 55 | 270 | 0.0 | 0.0 | 0.00 | 0.00 | 0.00 | 42 | 993.9 |
| 20260506002350 | 55 | 270 | 0.0 | 0.0 | 0.00 | 0.00 | 0.00 | 42 | 993.9 |
| 20260506002009 | 55 | 270 | 0.0 | 0.0 | 0.00 | 0.00 | 0.00 | 42 | 993.9 |
| 20260506001508 | 55 | 293 | 0.0 | 0.0 | 0.00 | 0.00 | 0.00 | 42 | 993.8 |
| 20260506001009 | 55 | 270 | 0.0 | 0.0 | 0.00 | 0.00 | 0.00 | 42 | 993.5 |
| 20260506000850 | 56 | 270 | 0.0 | 0.0 | 0.00 | 0.00 | 0.00 | 42 | 993.5 |
| 20260506000009 | 56 | 293 | 0.0 | 0.0 | 0.00 | 0.00 | 0.00 | 41 | 993.3 |
| 20260505235508 | 56 | 315 | 0.0 | 0.0 | 0.00 | 0.00 | 0.00 | 41 | 993.2 |
| 20260505235351 | 56 | 315 | 0.0 | 0.0 | 0.00 | 0.00 | 0.00 | 41 | 993.2 |
| 20260505234508 | 56 | 293 | 0.0 | 0.0 | 0.00 | 0.00 | 0.00 | 40 | 993.3 |
| 20260505234008 | 57 | 270 | 0.0 | 0.0 | 0.00 | 0.00 | 0.00 | 40 | 993.2 |
| 20260505233851 | 57 | 293 | 0.0 | 0.0 | 0.00 | 0.00 | 0.00 | 40 | 993.2 |
| 20260505233507 | 57 | 270 | 0.0 | 0.0 | 0.00 | 0.00 | 0.00 | 40 | 993.2 |
| 20260505233009 | 57 | 270 | 0.0 | 0.0 | 0.00 | 0.00 | 0.00 | 40 | 993.1 |
| 20260505232350 | 57 | 248 | 0.0 | 0.0 | 0.00 | 0.00 | 0.00 | 40 | 992.8 |
| 20260505232009 | 57 | 270 | 0.0 | 0.0 | 0.00 | 0.00 | 0.00 | 40 | 992.9 |
| 20260505231508 | 57 | 248 | 0.0 | 0.0 | 0.00 | 0.00 | 0.00 | 40 | 993.2 |
| 20260505231009 | 58 | 270 | 0.0 | 0.0 | 0.00 | 0.00 | 0.00 | 39 | 993.0 |
| 20260505230850 | 58 | 270 | 0.0 | 0.0 | 0.00 | 0.00 | 0.00 | 39 | 993.2 |
| 20260505230509 | 58 | 248 | 0.0 | 0.0 | 0.00 | 0.00 | 0.00 | 39 | 993.2 |
| 20260505230008 | 58 | 270 | 0.0 | 0.0 | 0.00 | 0.00 | 0.00 | 39 | 992.9 |
| 20260505225508 | 58 | 270 | 0.0 | 0.0 | 0.00 | 0.00 | 0.00 | 39 | 993.2 |
| 20260505225350 | 58 | 225 | 0.0 | 0.0 | 0.00 | 0.00 | 0.00 | 39 | 993.2 |
| 20260505224508 | 59 | 270 | 0.0 | 0.0 | 0.00 | 0.00 | 0.00 | 38 | 993.2 |
| 20260505223851 | 59 | 248 | 0.0 | 0.0 | 0.00 | 0.00 | 0.00 | 38 | 993.2 |
| 20260505223507 | 59 | 248 | 0.0 | 0.0 | 0.00 | 0.00 | 0.00 | 37 | 993.2 |
| 20260505222508 | 59 | 248 | 0.0 | 0.0 | 0.00 | 0.00 | 0.00 | 38 | 993.2 |
| 20260505222351 | 59 | 248 | 0.0 | 0.0 | 0.00 | 0.00 | 0.00 | 38 | 993.2 |
| 20260505221509 | 59 | 293 | 0.0 | 0.0 | 0.00 | 0.00 | 0.00 | 38 | 993.1 |
| 20260505220850 | 60 | 270 | 0.0 | 0.0 | 0.00 | 0.00 | 0.00 | 37 | 992.9 |
| 20260505220509 | 60 | 270 | 0.0 | 0.0 | 0.00 | 0.00 | 0.00 | 37 | 993.1 |
| 20260505215509 | 60 | 293 | 0.0 | 0.0 | 0.00 | 0.00 | 0.00 | 37 | 993.2 |
| 20260505215350 | 60 | 248 | 0.0 | 0.0 | 0.00 | 0.00 | 0.00 | 37 | 993.2 |
| 20260505215010 | 60 | 270 | 0.0 | 0.0 | 0.00 | 0.00 | 0.00 | 37 | 993.2 |
| 20260505214508 | 61 | 270 | 0.0 | 0.0 | 0.00 | 0.00 | 0.00 | 37 | 992.9 |
| 20260505214009 | 61 | 270 | 0.0 | 0.0 | 0.00 | 0.00 | 0.00 | 37 | 992.9 |
| 20260505213851 | 61 | 248 | 0.0 | 0.0 | 0.00 | 0.00 | 0.00 | 37 | 992.8 |
| 20260505213509 | 61 | 225 | 0.0 | 0.0 | 0.00 | 0.00 | 0.00 | 37 | 992.9 |
| 20260505212509 | 61 | 315 | 0.0 | 0.0 | 0.00 | 0.00 | 0.00 | 37 | 992.8 |
| 20260505212351 | 61 | 293 | 0.0 | 0.0 | 0.00 | 0.00 | 0.00 | 37 | 993.0 |
| 20260505212008 | 61 | 248 | 0.0 | 0.0 | 0.00 | 0.00 | 0.00 | 37 | 993.1 |
| 20260505211508 | 61 | 248 | 0.0 | 0.0 | 0.00 | 0.00 | 0.00 | 38 | 992.9 |
| 20260505210850 | 61 | 270 | 0.0 | 0.0 | 0.00 | 0.00 | 0.00 | 37 | 993.2 |
| 20260505210508 | 61 | 293 | 0.0 | 0.0 | 0.00 | 0.00 | 0.00 | 37 | 993.1 |
| 20260505210009 | 61 | 248 | 0.0 | 0.0 | 0.00 | 0.00 | 0.00 | 36 | 993.2 |
| 20260505205508 | 61 | 315 | 0.0 | 0.0 | 0.00 | 0.00 | 0.00 | 36 | 993.2 |
| 20260505205351 | 61 | 315 | 0.0 | 0.0 | 0.00 | 0.00 | 0.00 | 37 | 993.2 |
| 20260505205009 | 62 | 270 | 0.0 | 0.0 | 0.00 | 0.00 | 0.00 | 37 | 993.2 |
| 20260505204508 | 62 | 293 | 0.0 | 0.0 | 0.00 | 0.00 | 0.00 | 37 | 992.9 |
| 20260505204008 | 62 | 270 | 0.0 | 0.0 | 0.00 | 0.00 | 0.00 | 38 | 992.8 |
| 20260505203851 | 62 | 248 | 0.0 | 0.0 | 0.00 | 0.00 | 0.00 | 38 | 992.8 |
| 20260505203509 | 62 | 293 | 0.0 | 0.0 | 0.00 | 0.00 | 0.00 | 38 | 992.8 |
| 20260505202508 | 62 | 270 | 0.0 | 0.0 | 0.00 | 0.00 | 0.00 | 38 | 993.1 |
| 20260505202351 | 62 | 270 | 0.0 | 0.0 | 0.00 | 0.00 | 0.00 | 38 | 993.1 |
| 20260505202008 | 62 | 270 | 0.0 | 0.0 | 0.00 | 0.00 | 0.00 | 38 | 992.9 |
| 20260505201510 | 63 | 270 | 0.0 | 0.0 | 0.00 | 0.00 | 0.00 | 38 | 993.2 |
| 20260505201008 | 63 | 270 | 0.0 | 0.0 | 0.00 | 0.00 | 0.00 | 40 | 993.2 |
| 20260505200851 | 63 | 270 | 0.0 | 0.0 | 0.00 | 0.00 | 0.00 | 40 | 993.2 |
| 20260505200508 | 63 | 225 | 0.0 | 0.0 | 0.00 | 0.00 | 0.00 | 39 | 992.8 |
| 20260505200009 | 63 | 180 | 0.0 | 0.0 | 0.00 | 0.00 | 0.00 | 40 | 992.8 |
| 20260505195508 | 62 | 225 | 0.0 | 0.0 | 0.00 | 0.00 | 0.00 | 40 | 992.8 |
| 20260505195351 | 62 | 248 | 0.0 | 0.0 | 0.00 | 0.00 | 0.00 | 40 | 992.8 |
| 20260505195009 | 62 | 248 | 0.0 | 0.0 | 0.00 | 0.00 | 0.00 | 40 | 992.8 |
| 20260505194009 | 62 | 248 | 0.0 | 0.0 | 0.00 | 0.00 | 0.00 | 41 | 993.1 |
| 20260505193850 | 62 | 248 | 0.0 | 0.0 | 0.00 | 0.00 | 0.00 | 40 | 992.8 |
| 20260505193508 | 62 | 315 | 0.0 | 0.0 | 0.00 | 0.00 | 0.00 | 40 | 992.8 |
| 20260505193010 | 62 | 270 | 0.0 | 0.0 | 0.00 | 0.00 | 0.00 | 40 | 992.8 |
| 20260505192509 | 62 | 203 | 0.0 | 0.0 | 0.00 | 0.00 | 0.00 | 40 | 992.8 |
| 20260505192351 | 62 | 270 | 0.0 | 0.0 | 0.00 | 0.00 | 0.00 | 40 | 992.8 |
| 20260505192008 | 62 | 293 | 0.0 | 0.0 | 0.00 | 0.00 | 0.00 | 40 | 992.8 |
| 20260505191508 | 63 | 248 | 0.0 | 0.0 | 0.00 | 0.00 | 0.00 | 41 | 992.8 |
| 20260505191008 | 63 | 270 | 0.0 | 0.0 | 0.00 | 0.00 | 0.00 | 41 | 992.8 |
| 20260505190851 | 63 | 270 | 0.0 | 0.0 | 0.00 | 0.00 | 0.00 | 42 | 992.8 |
| 20260505190508 | 63 | 270 | 0.0 | 0.0 | 0.00 | 0.00 | 0.00 | 42 | 992.8 |
| 20260505190008 | 63 | 293 | 0.0 | 0.0 | 0.00 | 0.00 | 0.00 | 42 | 992.8 |
| 20260505185508 | 63 | 270 | 0.0 | 0.0 | 0.00 | 0.00 | 0.00 | 41 | 992.9 |
| 20260505185351 | 63 | 270 | 0.0 | 0.0 | 0.00 | 0.00 | 0.00 | 41 | 992.8 |
| 20260505185008 | 63 | 180 | 0.0 | 0.0 | 0.00 | 0.00 | 0.00 | 42 | 992.9 |
| 20260505184009 | 63 | 225 | 0.0 | 0.0 | 0.00 | 0.00 | 0.00 | 44 | 992.8 |
| 20260505183852 | 63 | 270 | 0.0 | 0.0 | 0.00 | 0.00 | 0.00 | 45 | 992.8 |
| 20260505183508 | 63 | 225 | 0.0 | 0.0 | 0.00 | 0.00 | 0.00 | 44 | 992.8 |
| 20260505183009 | 63 | 270 | 0.0 | 0.0 | 0.00 | 0.00 | 0.00 | 45 | 992.6 |
| 20260505182508 | 63 | 248 | 0.0 | 0.0 | 0.00 | 0.00 | 0.00 | 46 | 992.6 |
| 20260505182351 | 63 | 270 | 0.0 | 0.0 | 0.00 | 0.00 | 0.00 | 46 | 992.6 |
| 20260505182008 | 62 | 293 | 0.0 | 0.0 | 0.00 | 0.00 | 0.00 | 46 | 992.5 |
| 20260505181509 | 62 | 248 | 0.0 | 0.0 | 0.00 | 0.00 | 0.00 | 46 | 992.5 |
| 20260505181010 | 62 | 248 | 0.0 | 0.0 | 0.00 | 0.00 | 0.00 | 46 | 992.5 |
| 20260505180851 | 62 | 315 | 0.0 | 0.0 | 0.00 | 0.00 | 0.00 | 47 | 992.5 |
| 20260505180508 | 62 | 293 | 0.0 | 0.0 | 0.00 | 0.00 | 0.00 | 47 | 992.2 |
| 20260505180010 | 63 | 270 | 0.0 | 0.0 | 0.00 | 0.00 | 0.00 | 47 | 992.3 |
| 20260505175508 | 63 | 315 | 0.0 | 0.0 | 0.00 | 0.00 | 0.00 | 49 | 992.2 |
| 20260505175350 | 63 | 248 | 0.0 | 0.0 | 0.00 | 0.00 | 0.00 | 49 | 992.2 |
| 20260505174509 | 61 | 248 | 0.0 | 0.0 | 0.00 | 0.00 | 0.00 | 50 | 992.2 |
| 20260505174009 | 61 | 203 | 0.0 | 0.0 | 0.00 | 0.00 | 0.00 | 50 | 992.2 |
| 20260505173850 | 61 | 315 | 0.0 | 0.0 | 0.00 | 0.00 | 0.00 | 50 | 992.2 |
| 20260505173509 | 61 | 248 | 0.0 | 0.0 | 0.00 | 0.00 | 0.00 | 50 | 992.4 |
| 20260505173009 | 60 | 270 | 0.0 | 0.0 | 0.00 | 0.00 | 0.00 | 51 | 992.4 |
| 20260505172508 | 60 | 315 | 0.0 | 0.0 | 0.00 | 0.00 | 0.00 | 51 | 992.2 |
| 20260505172352 | 60 | 225 | 0.0 | 0.0 | 0.00 | 0.00 | 0.00 | 51 | 992.2 |
| 20260505172008 | 60 | 293 | 0.0 | 0.0 | 0.00 | 0.00 | 0.00 | 51 | 992.2 |
| 20260505171508 | 60 | 293 | 0.0 | 0.0 | 0.00 | 0.00 | 0.00 | 50 | 992.5 |
| 20260505170850 | 60 | 315 | 0.0 | 0.0 | 0.00 | 0.00 | 0.00 | 51 | 992.3 |
| 20260505170009 | 60 | 270 | 0.0 | 0.0 | 0.00 | 0.00 | 0.00 | 51 | 992.2 |
| 20260505165509 | 60 | 248 | 0.0 | 0.0 | 0.00 | 0.00 | 0.00 | 51 | 992.2 |
| 20260505165351 | 60 | 270 | 0.0 | 0.0 | 0.00 | 0.00 | 0.00 | 51 | 992.3 |
| 20260505164509 | 60 | 225 | 0.0 | 0.0 | 0.00 | 0.00 | 0.00 | 51 | 992.5 |
| 20260505163850 | 60 | 270 | 0.0 | 0.0 | 0.00 | 0.00 | 0.00 | 52 | 992.8 |
| 20260505163509 | 59 | 293 | 0.0 | 0.0 | 0.00 | 0.00 | 0.00 | 52 | 992.8 |
| 20260505162509 | 59 | 293 | 0.0 | 0.0 | 0.00 | 0.00 | 0.00 | 52 | 992.8 |
| 20260505162350 | 59 | 203 | 0.0 | 0.0 | 0.00 | 0.00 | 0.00 | 52 | 992.8 |
| 20260505162009 | 59 | 203 | 0.0 | 0.0 | 0.00 | 0.00 | 0.00 | 53 | 992.8 |
| 20260505161509 | 59 | 225 | 0.0 | 0.0 | 0.00 | 0.00 | 0.00 | 54 | 992.8 |
| 20260505161008 | 58 | 270 | 0.0 | 0.0 | 0.00 | 0.00 | 0.00 | 55 | 992.8 |
| 20260505160851 | 58 | 248 | 0.0 | 0.0 | 0.00 | 0.00 | 0.00 | 55 | 992.8 |
| 20260505160509 | 57 | 315 | 0.0 | 0.0 | 0.00 | 0.00 | 0.00 | 55 | 992.8 |
| 20260505153009 | 55 | 248 | 0.0 | 0.0 | 0.00 | 0.00 | 0.00 | 58 | 993.0 |
| 20260505152509 | 55 | 225 | 0.0 | 0.0 | 0.00 | 0.00 | 0.00 | 58 | 992.8 |
| 20260505152352 | 55 | 270 | 0.0 | 0.0 | 0.00 | 0.00 | 0.00 | 58 | 992.8 |
| 20260505152010 | 54 | 248 | 0.0 | 0.0 | 0.00 | 0.00 | 0.00 | 59 | 992.8 |
| 20260505151509 | 54 | 270 | 0.0 | 0.0 | 0.00 | 0.00 | 0.00 | 59 | 992.9 |
| 20260505151009 | 54 | 180 | 0.0 | 0.0 | 0.00 | 0.00 | 0.00 | 58 | 992.8 |
| 20260505150852 | 53 | 293 | 0.0 | 0.0 | 0.00 | 0.00 | 0.00 | 59 | 992.8 |
| 20260505150508 | 53 | 293 | 0.0 | 0.0 | 0.00 | 0.00 | 0.00 | 58 | 993.2 |